Location: Riverside Cemetery
(38.3047°N, 99.7773°W)
Time: 06:57:57
(UTC+00:00)

ERS-2 - Pass Details

Date: 19 September 2020
Orbit: 492 x 499 km, 98.6° (Epoch: 22 October)

Event Time Altitude Azimuth Distance (km) Brightness Sun altitude
Rises 10:24:43 0° 149° (SSE) 2,576 5.9 -23.8°
Reaches altitude 10° 10:26:52 10° 141° (SE) 1,698 5.0 -23.4°
Maximum altitude 10:30:17 39° 72° (ENE) 765 3.5 -22.7°
Drops below altitude 10° 10:33:43 10° 3° (N) 1,709 5.1 -22.1°
Sets 10:35:53 0° 356° (N) 2,597 6.0 -21.7°
